Weather History for Fort Myers Airport, FL

Change the Weather History Date:

Wednesday, June 12, 2013

  Actual Average Record
Temperature  
Mean Temperature 80 °F -  
Max Temperature 91 °F 91 °F 100 °F (1981)
Min Temperature 71 °F 73 °F 61 °F (1960)
Cooling Degree Days 16    
Growing Degree Days 30 (Base 50)    
Moisture  
Dew Point 72 °F    
Average Humidity 88    
Maximum Humidity 100    
Minimum Humidity 55    
Precipitation  
Precipitation 2.02 in - - ()
Sea Level Pressure  
Sea Level Pressure 30.06 in    
Wind  
Wind Speed 4 mph (SE)    
Max Wind Speed 22 mph    
Max Gust Speed 25 mph    
Visibility 7 miles    
Events Fog , Rain , Thunderstorm    
Averages and records for this station are not official NWS values.
T = Trace of Precipitation, MM = Missing Value Source: NWS Daily Summary

Daily Weather History Graph

Daily Weather History Graph

Search for Another Location

Airport:

Trip Planner

Search our weather history database for the weather conditions in past years. The results will help you decide how hot, cold, wet, or windy it might be!

Date:

Astronomy

Jun. 12, 2013 Rise Set
Actual Time 6:33 AM EDT 8:20 PM EDT
Civil Twilight 6:07 AM EDT 8:46 PM EDT
Nautical Twilight 5:35 AM EDT 9:18 PM EDT
Astronomical Twilight 5:02 AM EDT 9:51 PM EDT
Moon 9:56 AM EDT (6/12) 11:13 PM EDT (6/12)
Length of Visible Light 14h 39m
Length of Day
13h 47m
Waxing Crescent, 14% of the Moon is Illuminated
Jun 12
Waxing Crescent
Jun 16
First Quarter
Jun 23
Full
Jun 30
Last Quarter
Jul 8
New

Hourly Weather History & Observations

Time (EDT) Temp. Heat Index Dew Point Humidity Pressure Visibility Wind Dir Wind Speed Gust Speed Precip Events Conditions
12:53 AM 73.0 °F - 71.1 °F 93% 30.06 in 10.0 mi Calm Calm - N/A   Clear
1:53 AM 73.0 °F - 71.1 °F 93% 30.05 in 10.0 mi Calm Calm - N/A   Clear
2:53 AM 72.0 °F - 71.1 °F 97% 30.04 in 10.0 mi ENE 3.5 mph - N/A   Clear
3:53 AM 72.0 °F - 71.1 °F 97% 30.04 in 10.0 mi Calm Calm - N/A   Clear
4:53 AM 71.1 °F - 71.1 °F 100% 30.03 in 10.0 mi Calm Calm - N/A   Clear
5:53 AM 71.1 °F - 70.0 °F 96% 30.04 in 10.0 mi ENE 3.5 mph - N/A   Clear
6:53 AM 71.1 °F - 71.1 °F 100% 30.06 in 10.0 mi Calm Calm - N/A   Clear
7:53 AM 73.0 °F - 72.0 °F 96% 30.06 in 10.0 mi ENE 4.6 mph - N/A   Clear
8:53 AM 78.1 °F - 75.9 °F 93% 30.08 in 10.0 mi East 3.5 mph - N/A   Clear
9:53 AM 80.1 °F 85.4 °F 75.9 °F 87% 30.07 in 10.0 mi Calm Calm - N/A   Clear
10:32 AM 80.6 °F 86.2 °F 75.2 °F 84% 30.08 in 0.2 mi Calm Calm - 0.07 in   Haze
10:37 AM 80.6 °F 86.2 °F 75.2 °F 84% 30.08 in 1.0 mi Calm Calm - 0.07 in   Haze
10:39 AM 82.4 °F 89.5 °F 75.2 °F 79% 30.08 in 6.0 mi Calm Calm - 0.07 in   Haze
10:53 AM 82.9 °F 89.4 °F 73.9 °F 74% 30.07 in 10.0 mi Calm Calm - 0.07 in   Clear
11:53 AM 84.9 °F 92.1 °F 73.9 °F 69% 30.08 in - Calm Calm - N/A   Clear
12:53 PM 88.0 °F 95.6 °F 73.0 °F 61% 30.06 in 10.0 mi Calm Calm - N/A   Partly Cloudy
1:53 PM 90.0 °F 96.9 °F 72.0 °F 55% 30.03 in 10.0 mi North 3.5 mph - N/A   Scattered Clouds
2:53 PM 84.9 °F 88.8 °F 69.1 °F 59% 30.03 in 10.0 mi South 8.1 mph - N/A   Overcast
3:21 PM 80.6 °F 85.4 °F 73.4 °F 79% 30.05 in 1.8 mi SE 17.3 mph 21.9 mph 0.15 in Rain Heavy Rain
3:34 PM 77.0 °F - 71.6 °F 83% 30.03 in 3.0 mi SE 12.7 mph 24.2 mph 0.22 in Rain Light Rain
3:45 PM 75.2 °F - 69.8 °F 83% 30.05 in 10.0 mi SW 19.6 mph - 0.22 in Thunderstorm Overcast
3:53 PM 75.0 °F - 70.0 °F 84% 30.04 in 8.0 mi South 21.9 mph - 0.23 in Rain , Thunderstorm Light Rain
4:06 PM 75.2 °F - 69.8 °F 83% 30.08 in 1.8 mi South 17.3 mph 23.0 mph 0.15 in Rain , Thunderstorm Rain
4:12 PM 73.4 °F - 71.6 °F 94% 30.09 in 0.5 mi SSE 17.3 mph 25.3 mph 0.45 in Fog , Rain , Thunderstorm Heavy Rain
4:29 PM 71.6 °F - 71.6 °F 100% 30.10 in 1.0 mi SE 13.8 mph 19.6 mph 0.95 in Rain , Thunderstorm Heavy Thunderstorms and Rain
4:36 PM 71.6 °F - 71.6 °F 100% 30.09 in 0.8 mi SE 17.3 mph 23.0 mph 1.33 in Rain , Thunderstorm Heavy Thunderstorms and Rain
4:43 PM 71.6 °F - 71.6 °F 100% 30.09 in 1.0 mi South 6.9 mph - 1.49 in Rain , Thunderstorm Heavy Thunderstorms and Rain
4:53 PM 71.1 °F - 70.0 °F 96% 30.10 in 1.8 mi West 8.1 mph - 1.63 in Rain , Thunderstorm Heavy Thunderstorms and Rain
5:11 PM 71.6 °F - 69.8 °F 94% 30.07 in 4.0 mi WSW 16.1 mph - 0.09 in Rain , Thunderstorm Thunderstorms and Rain
5:53 PM 71.1 °F - 69.1 °F 93% 30.04 in 10.0 mi West 5.8 mph - 0.09 in   Scattered Clouds
6:53 PM 72.0 °F - 71.1 °F 97% 30.05 in 10.0 mi ENE 5.8 mph - N/A   Clear
7:53 PM 71.1 °F - 70.0 °F 96% 30.02 in 10.0 mi ESE 3.5 mph - N/A   Clear
8:53 PM 72.0 °F - 70.0 °F 93% 30.04 in 10.0 mi NNW 5.8 mph - N/A   Clear
9:53 PM 72.0 °F - 70.0 °F 93% 30.05 in 10.0 mi Calm Calm - N/A   Clear
10:53 PM 71.1 °F - 70.0 °F 96% 30.08 in 10.0 mi SSE 9.2 mph - N/A   Clear
11:53 PM 71.1 °F - 70.0 °F 96% 30.06 in 10.0 mi Calm Calm - N/A   Clear